Regional Weather Roundup
Issued by NWS New Orleans/Baton Rouge, LA

Home | Current Version | Previous Version | Graphics & Text | Print | Product List | Glossary On
Versions: 1 2 3 4 5 6 7 8 9 10 11 12 13 14 15 16 17 18 19 20 21 22 23 24 25 26 27 28 29 30 31 32 33 34 35 36 37 38 39 40 41 42 43 44 45 46 47 48 49 50
825
ASUS44 KLIX 181411
RWRLIX
NEW ORLEANS REGIONAL WEATHER ROUNDUP
NATIONAL WEATHER SERVICE NEW ORLEANS LA
900 AM CDT SAT APR 18 2015

NOTE: "FAIR" INDICATES FEW OR NO CLOUDS BELOW 12,000 FEET WITH NO
      SIGNIFICANT WEATHER AND/OR OBSTRUCTIONS TO VISIBILITY.
      SKY/WX - SKY CONDITION AND SIGNIFICANT WEATHER.
      TMP - AIR TEMPERATURE.     DP    - DEWPOINT TEMPERATURE.
      RH  - RELATIVE HUMIDITY.   PRES  - PRESSURE.
      HI  - HEAT INDEX.          WCI   - WIND CHILL INDEX.

*  THESE STATIONS ARE NOT NWS OR FAA STATIONS AND ARE NOT UNDER
   NWS QUALITY CONTROL.

LAZ038-040-048-061>063-065>067-069-181500-
SOUTHEAST LOUISIANA

CITY           SKY/WX    TMP DP  RH WIND       PRES   REMARKS
N.O. AUDUBON     N/A     70  70 100 MISG        N/A
N.O. INTL ARPT RAIN      71  69  93 S6        30.00R FOG
N.O. LAKEFRONT LGT RAIN  73  69  87 SW8       29.99R FOG
SLIDELL        RAIN      70  70 100 CALM      29.96R FOG
BATON ROUGE    LGT RAIN  69  68  96 SE10      29.92S FOG
BOOTHVILLE     CLOUDY    70  68  93 E7        29.96R
BELLE CHASSE   LGT RAIN  69  67  93 CALM      29.98R FOG
BOGALUSA*      LGT RAIN  70  66  89 CALM      29.96S
GALLIANO*      RAIN      67  67  97 N10       29.99R
NEW ROADS*     LGT RAIN  69  68  98 E6        29.90F
GONZALES*      RAIN      70  70 100 SE7       29.95F
HAMMOND*       LGT RAIN  70  66  88 CALM      29.99R
HOUMA*         TSTM      70  68  94 N6        29.95S
PORT FOURCHON* CLOUDY    72  70  94 NE12      29.99R FOG

$$

MSZ070-080>082-181500-
SOUTHERN MISSISSIPPI

CITY           SKY/WX    TMP DP  RH WIND       PRES   REMARKS
MCCOMB         CLOUDY    68  67  96 SE8       29.94R
GULFPORT       LGT RAIN  69  67  93 CALM      29.97R
BILOXI         LGT RAIN  69  69 100 E3        29.97R
PASCAGOULA     LGT RAIN  69  68  96 CALM      29.99R
STENNIS ARPT*  RAIN      70  64  83 MISG      29.97R

$$

COASTAL OBSERVATIONS
LAKE AND NEARSHORE STATIONS

STATION/POSITION TIME  TEMP    WIND        PRES    WAVE
                       AIR SEA DIR/SP/G            HT/PER
                 (UTC) (F)     (DEG/KT/KT) (MB)    (FT/S)
PASCAGOULA       1300   69      10/  4/  6 1013.4
WAVELAND YACHT   1300   69 73  360/  7/  9 1013.5
GRAND ISLE       1300   72 76   90/  6/ 10 1013.7
SOUTHWEST PASS   1300   68 63   60/ 11/ 12 1014.3
NEW CANAL        1300   72      10/  2/  2 1014.8
SHELL BEACH      1300   74 76  350/  6/  7 1013.4

OFFSHORE STATIONS

STATION/POSITION TIME  TEMP    WIND        PRES    WAVE
                       AIR SEA DIR/SP/G            HT/PER
                 (UTC) (F)     (DEG/KT/KT) (MB)    (FT/S)
64 S DAUPHIN ISL 1350   71 75   60/  4/  6 1014.7    3/ 5

$$




USA.gov is the U.S. government's official web portal to all federal, state and local government web resources and services.